| time (UTC) | temp F | wind direction | speed MPH | gust MPH | rain 1hr in | rain 24hr in | rain mn in | humidity % | barometer mb |
| 20260504185437 | 73 | 134 | 4.0 | 16.0 | 0.00 | 0.00 | 0.00 | 31 | 1009.9 |
| 20260504184931 | 74 | 171 | 16.0 | 13.0 | 0.00 | 0.00 | 0.00 | 36 | 1009.9 |
| 20260504184431 | 74 | 172 | 4.0 | 13.0 | 0.00 | 0.00 | 0.00 | 31 | 1010.1 |
| 20260504183932 | 74 | 155 | 9.0 | 12.0 | 0.00 | 0.00 | 0.00 | 31 | 1010.1 |
| 20260504183431 | 75 | 159 | 6.0 | 10.0 | 0.00 | 0.00 | 0.00 | 32 | 1010.2 |
| 20260504182931 | 74 | 207 | 3.0 | 11.0 | 0.00 | 0.00 | 0.00 | 33 | 1010.3 |
| 20260504182431 | 75 | 244 | 6.0 | 10.0 | 0.00 | 0.00 | 0.00 | 32 | 1010.3 |
| 20260504181931 | 76 | 229 | 4.0 | 7.0 | 0.00 | 0.00 | 0.00 | 34 | 1010.5 |
| 20260504181431 | 75 | 230 | 3.0 | 7.0 | 0.00 | 0.00 | 0.00 | 33 | 1010.5 |
| 20260504180932 | 76 | 157 | 4.0 | 7.0 | 0.00 | 0.00 | 0.00 | 32 | 1010.6 |
| 20260504180437 | 76 | 217 | 4.0 | 8.0 | 0.00 | 0.00 | 0.00 | 33 | 1010.5 |
| 20260504175932 | 75 | 158 | 4.0 | 11.0 | 0.00 | 0.00 | 0.00 | 30 | 1010.6 |
| 20260504175431 | 75 | 125 | 1.0 | 10.0 | 0.00 | 0.00 | 0.00 | 33 | 1010.7 |
| 20260504174932 | 74 | 159 | 0.0 | 11.0 | 0.00 | 0.00 | 0.00 | 33 | 1010.8 |
| 20260504174431 | 75 | 176 | 7.0 | 12.0 | 0.00 | 0.00 | 0.00 | 31 | 1010.8 |
| 20260504173931 | 75 | 258 | 10.0 | 11.0 | 0.00 | 0.00 | 0.00 | 33 | 1010.8 |
| 20260504173435 | 75 | 290 | 1.0 | 5.0 | 0.00 | 0.00 | 0.00 | 35 | 1011.0 |
| 20260504172931 | 74 | 65 | 3.0 | 11.0 | 0.00 | 0.00 | 0.00 | 33 | 1011.1 |
| 20260504172434 | 74 | 151 | 4.0 | 8.0 | 0.00 | 0.00 | 0.00 | 34 | 1011.1 |
| 20260504171937 | 74 | 218 | 3.0 | 7.0 | 0.00 | 0.00 | 0.00 | 35 | 1011.1 |
| 20260504171431 | 73 | 355 | 3.0 | 12.0 | 0.00 | 0.00 | 0.00 | 35 | 1011.3 |
| 20260504170938 | 74 | 155 | 9.0 | 10.0 | 0.00 | 0.00 | 0.00 | 35 | 1011.3 |
| 20260504170434 | 75 | 146 | 1.0 | 7.0 | 0.00 | 0.00 | 0.00 | 33 | 1011.4 |
| 20260504160434 | 72 | 154 | 9.0 | 9.0 | 0.00 | 0.00 | 0.00 | 36 | 1012.2 |
| 20260504150931 | 69 | 142 | 1.0 | 12.0 | 0.00 | 0.00 | 0.00 | 42 | 1012.7 |
| 20260504150432 | 69 | 198 | 1.0 | 8.0 | 0.00 | 0.00 | 0.00 | 43 | 1012.7 |
| 20260504140937 | 65 | 253 | 3.0 | 13.0 | 0.00 | 0.00 | 0.00 | 49 | 1012.9 |
| 20260504140431 | 66 | 214 | 1.0 | 7.0 | 0.00 | 0.00 | 0.00 | 49 | 1013.0 |
| 20260504130437 | 62 | 150 | 16.0 | 11.0 | 0.00 | 0.00 | 0.00 | 56 | 1013.4 |
| 20260504110431 | 50 | 192 | 0.0 | 3.0 | 0.00 | 0.00 | 0.00 | 74 | 1014.0 |
| 20260504100434 | 46 | 171 | 1.0 | 2.0 | 0.00 | 0.00 | 0.00 | 75 | 1013.9 |
| 20260504081937 | 48 | 198 | 0.0 | 2.0 | 0.00 | 0.00 | 0.00 | 60 | 1013.8 |
| 20260504081431 | 48 | 217 | 0.0 | 0.0 | 0.00 | 0.00 | 0.00 | 59 | 1013.8 |
| 20260504080934 | 48 | 219 | 0.0 | 2.0 | 0.00 | 0.00 | 0.00 | 58 | 1013.8 |
| 20260504080437 | 48 | 209 | 1.0 | 2.0 | 0.00 | 0.00 | 0.00 | 57 | 1013.8 |
| 20260504050431 | 50 | 183 | 0.0 | 0.0 | 0.00 | 0.00 | 0.00 | 54 | 1013.5 |
| 20260504045938 | 49 | 183 | 0.0 | 0.0 | 0.00 | 0.00 | 0.00 | 54 | 1013.5 |
| 20260504045437 | 49 | 183 | 0.0 | 2.0 | 0.00 | 0.00 | 0.00 | 55 | 1013.6 |
| 20260504044931 | 49 | 183 | 0.0 | 1.0 | 0.00 | 0.00 | 0.00 | 54 | 1013.6 |
| 20260504044436 | 50 | 183 | 1.0 | 2.0 | 0.00 | 0.00 | 0.00 | 54 | 1013.5 |
| 20260504043937 | 51 | 196 | 1.0 | 1.0 | 0.00 | 0.00 | 0.00 | 52 | 1013.4 |
| 20260504043435 | 51 | 196 | 0.0 | 2.0 | 0.00 | 0.00 | 0.00 | 50 | 1013.3 |
| 20260504042931 | 51 | 197 | 1.0 | 1.0 | 0.00 | 0.00 | 0.00 | 51 | 1013.2 |
| 20260504042432 | 51 | 196 | 0.0 | 1.0 | 0.00 | 0.00 | 0.00 | 49 | 1013.2 |
| 20260504041935 | 51 | 196 | 0.0 | 2.0 | 0.00 | 0.00 | 0.00 | 49 | 1013.2 |
| 20260504041437 | 51 | 196 | 0.0 | 2.0 | 0.00 | 0.00 | 0.00 | 49 | 1013.2 |
| 20260504040931 | 51 | 210 | 1.0 | 3.0 | 0.00 | 0.00 | 0.00 | 50 | 1013.1 |
| 20260504040437 | 51 | 234 | 1.0 | 1.0 | 0.00 | 0.00 | 0.00 | 49 | 1013.0 |
| 20260504035937 | 51 | 232 | 0.0 | 2.0 | 0.00 | 0.00 | 0.00 | 49 | 1013.0 |
| 20260504035431 | 52 | 226 | 1.0 | 2.0 | 0.00 | 0.00 | 0.00 | 48 | 1012.9 |
| 20260504034934 | 52 | 213 | 0.0 | 2.0 | 0.00 | 0.00 | 0.00 | 48 | 1013.0 |
| 20260504034431 | 52 | 238 | 0.0 | 2.0 | 0.00 | 0.00 | 0.00 | 47 | 1012.9 |
| 20260504033931 | 52 | 157 | 0.0 | 2.0 | 0.00 | 0.00 | 0.00 | 47 | 1013.0 |
| 20260504033431 | 53 | 192 | 1.0 | 3.0 | 0.00 | 0.00 | 0.00 | 46 | 1012.9 |
| 20260504032934 | 53 | 213 | 0.0 | 2.0 | 0.00 | 0.00 | 0.00 | 46 | 1012.9 |
| 20260504032440 | 53 | 229 | 0.0 | 2.0 | 0.00 | 0.00 | 0.00 | 46 | 1012.9 |
| 20260504031934 | 53 | 189 | 0.0 | 3.0 | 0.00 | 0.00 | 0.00 | 46 | 1012.8 |
| 20260504031438 | 53 | 211 | 0.0 | 3.0 | 0.00 | 0.00 | 0.00 | 46 | 1012.8 |
| 20260504030934 | 53 | 261 | 4.0 | 4.0 | 0.00 | 0.00 | 0.00 | 46 | 1012.8 |
| 20260504030431 | 53 | 194 | 3.0 | 3.0 | 0.00 | 0.00 | 0.00 | 47 | 1012.8 |
| 20260504025931 | 52 | 232 | 3.0 | 2.0 | 0.00 | 0.00 | 0.00 | 47 | 1012.8 |
| 20260504025434 | 53 | 198 | 1.0 | 2.0 | 0.00 | 0.00 | 0.00 | 46 | 1012.8 |
| 20260504024931 | 53 | 242 | 0.0 | 2.0 | 0.00 | 0.00 | 0.00 | 46 | 1012.9 |
| 20260504024434 | 53 | 219 | 0.0 | 2.0 | 0.00 | 0.00 | 0.00 | 46 | 1012.8 |
| 20260504023931 | 53 | 198 | 1.0 | 3.0 | 0.00 | 0.00 | 0.00 | 45 | 1012.8 |
| 20260504023434 | 53 | 172 | 3.0 | 2.0 | 0.00 | 0.00 | 0.00 | 46 | 1012.9 |
| 20260504022931 | 53 | 218 | 1.0 | 2.0 | 0.00 | 0.00 | 0.00 | 45 | 1012.8 |
| 20260504022431 | 53 | 190 | 1.0 | 2.0 | 0.00 | 0.00 | 0.00 | 45 | 1012.8 |
| 20260504021932 | 53 | 189 | 0.0 | 5.0 | 0.00 | 0.00 | 0.00 | 46 | 1012.8 |
| 20260504021435 | 53 | 174 | 0.0 | 2.0 | 0.00 | 0.00 | 0.00 | 46 | 1012.8 |
| 20260504020931 | 53 | 174 | 1.0 | 2.0 | 0.00 | 0.00 | 0.00 | 46 | 1012.7 |
| 20260504020431 | 53 | 185 | 0.0 | 0.0 | 0.00 | 0.00 | 0.00 | 46 | 1012.8 |
| 20260504015931 | 53 | 185 | 0.0 | 1.0 | 0.00 | 0.00 | 0.00 | 46 | 1012.8 |
| 20260504015434 | 53 | 184 | 1.0 | 2.0 | 0.00 | 0.00 | 0.00 | 46 | 1012.7 |
| 20260504014940 | 53 | 184 | 1.0 | 2.0 | 0.00 | 0.00 | 0.00 | 46 | 1012.7 |
| 20260504014431 | 53 | 186 | 1.0 | 3.0 | 0.00 | 0.00 | 0.00 | 46 | 1012.6 |
| 20260504013934 | 53 | 209 | 0.0 | 0.0 | 0.00 | 0.00 | 0.00 | 46 | 1012.6 |
| 20260504013437 | 53 | 209 | 0.0 | 0.0 | 0.00 | 0.00 | 0.00 | 46 | 1012.5 |
| 20260504012931 | 52 | 217 | 0.0 | 0.0 | 0.00 | 0.00 | 0.00 | 47 | 1012.5 |
| 20260504012434 | 52 | 217 | 0.0 | 0.0 | 0.00 | 0.00 | 0.00 | 48 | 1012.5 |
| 20260504011932 | 52 | 217 | 0.0 | 0.0 | 0.00 | 0.00 | 0.00 | 50 | 1012.4 |
| 20260504011431 | 52 | 217 | 0.0 | 0.0 | 0.00 | 0.00 | 0.00 | 50 | 1012.3 |
| 20260504010934 | 53 | 217 | 0.0 | 0.0 | 0.00 | 0.00 | 0.00 | 48 | 1012.2 |
| 20260504010431 | 53 | 217 | 0.0 | 0.0 | 0.00 | 0.00 | 0.00 | 47 | 1012.2 |
| 20260504005934 | 54 | 222 | 0.0 | 0.0 | 0.00 | 0.00 | 0.00 | 46 | 1012.0 |
| 20260504005435 | 55 | 222 | 0.0 | 1.0 | 0.00 | 0.00 | 0.00 | 44 | 1012.0 |
| 20260504004937 | 55 | 222 | 1.0 | 1.0 | 0.00 | 0.00 | 0.00 | 42 | 1011.9 |
| 20260504004431 | 55 | 222 | 1.0 | 2.0 | 0.00 | 0.00 | 0.00 | 41 | 1011.9 |
| 20260504003940 | 56 | 232 | 0.0 | 2.0 | 0.00 | 0.00 | 0.00 | 41 | 1011.8 |
| 20260504003437 | 56 | 233 | 1.0 | 2.0 | 0.00 | 0.00 | 0.00 | 39 | 1011.7 |
| 20260504002934 | 56 | 225 | 0.0 | 1.0 | 0.00 | 0.00 | 0.00 | 39 | 1011.7 |
| 20260504002434 | 56 | 225 | 0.0 | 3.0 | 0.00 | 0.00 | 0.00 | 38 | 1011.6 |
| 20260504001934 | 57 | 192 | 0.0 | 2.0 | 0.00 | 0.00 | 0.00 | 38 | 1011.6 |
| 20260504001431 | 57 | 242 | 1.0 | 3.0 | 0.00 | 0.00 | 0.00 | 37 | 1011.6 |
| 20260504000931 | 57 | 259 | 1.0 | 4.0 | 0.00 | 0.00 | 0.00 | 37 | 1011.5 |
| 20260504000431 | 58 | 202 | 4.0 | 4.0 | 0.00 | 0.00 | 0.00 | 37 | 1011.5 |
| 20260503235931 | 58 | 175 | 1.0 | 5.0 | 0.00 | 0.00 | 0.00 | 36 | 1011.5 |
| 20260503235434 | 58 | 268 | 1.0 | 7.0 | 0.00 | 0.00 | 0.00 | 35 | 1011.5 |
| 20260503234931 | 59 | 215 | 0.0 | 8.0 | 0.00 | 0.00 | 0.00 | 35 | 1011.4 |
| 20260503234434 | 59 | 256 | 0.0 | 4.0 | 0.00 | 0.00 | 0.00 | 35 | 1011.3 |
| 20260503233934 | 59 | 247 | 0.0 | 3.0 | 0.00 | 0.00 | 0.00 | 34 | 1011.3 |
| 20260503233434 | 59 | 277 | 1.0 | 4.0 | 0.00 | 0.00 | 0.00 | 34 | 1011.1 |
| 20260503232932 | 60 | 210 | 3.0 | 6.0 | 0.00 | 0.00 | 0.00 | 34 | 1011.2 |
| 20260503232431 | 60 | 192 | 1.0 | 9.0 | 0.00 | 0.00 | 0.00 | 32 | 1011.2 |
| 20260503231931 | 60 | 254 | 4.0 | 8.0 | 0.00 | 0.00 | 0.00 | 32 | 1011.2 |
| 20260503231437 | 60 | 144 | 3.0 | 9.0 | 0.00 | 0.00 | 0.00 | 32 | 1011.1 |
| 20260503230932 | 60 | 241 | 0.0 | 7.0 | 0.00 | 0.00 | 0.00 | 32 | 1011.1 |
| 20260503230435 | 61 | 296 | 10.0 | 11.0 | 0.00 | 0.00 | 0.00 | 31 | 1011.0 |
| 20260503225934 | 61 | 277 | 10.0 | 15.0 | 0.00 | 0.00 | 0.00 | 31 | 1011.1 |
| 20260503225431 | 61 | 267 | 10.0 | 7.0 | 0.00 | 0.00 | 0.00 | 31 | 1011.0 |
| 20260503224937 | 61 | 273 | 4.0 | 8.0 | 0.00 | 0.00 | 0.00 | 31 | 1011.0 |
| 20260503224431 | 61 | 290 | 10.0 | 8.0 | 0.00 | 0.00 | 0.00 | 32 | 1011.0 |
| 20260503223934 | 61 | 227 | 3.0 | 7.0 | 0.00 | 0.00 | 0.00 | 31 | 1010.9 |
| 20260503223434 | 61 | 196 | 7.0 | 11.0 | 0.00 | 0.00 | 0.00 | 31 | 1010.9 |
| 20260503222931 | 61 | 324 | 15.0 | 10.0 | 0.00 | 0.00 | 0.00 | 31 | 1010.9 |
| 20260503222431 | 61 | 254 | 1.0 | 6.0 | 0.00 | 0.00 | 0.00 | 31 | 1010.9 |
| 20260503221940 | 61 | 240 | 4.0 | 9.0 | 0.00 | 0.00 | 0.00 | 30 | 1010.9 |
| 20260503221437 | 61 | 288 | 7.0 | 8.0 | 0.00 | 0.00 | 0.00 | 30 | 1010.9 |
| 20260503220931 | 62 | 344 | 7.0 | 16.0 | 0.00 | 0.00 | 0.00 | 29 | 1010.9 |
| 20260503220431 | 61 | 324 | 9.0 | 8.0 | 0.00 | 0.00 | 0.00 | 29 | 1010.9 |
| 20260503215934 | 61 | 301 | 6.0 | 11.0 | 0.00 | 0.00 | 0.00 | 29 | 1011.0 |
| 20260503215431 | 61 | 302 | 4.0 | 8.0 | 0.00 | 0.00 | 0.00 | 31 | 1011.0 |
| 20260503214931 | 61 | 321 | 12.0 | 17.0 | 0.00 | 0.00 | 0.00 | 30 | 1011.0 |
| 20260503214437 | 61 | 279 | 4.0 | 15.0 | 0.00 | 0.00 | 0.00 | 30 | 1011.1 |
| 20260503213931 | 61 | 299 | 21.0 | 14.0 | 0.00 | 0.00 | 0.00 | 31 | 1011.0 |
| 20260503213434 | 61 | 272 | 1.0 | 14.0 | 0.00 | 0.00 | 0.00 | 31 | 1010.9 |
| 20260503212937 | 61 | 259 | 3.0 | 12.0 | 0.00 | 0.00 | 0.00 | 31 | 1010.8 |
| 20260503212434 | 61 | 262 | 4.0 | 11.0 | 0.00 | 0.00 | 0.00 | 32 | 1010.9 |
| 20260503211932 | 61 | 319 | 6.0 | 10.0 | 0.00 | 0.00 | 0.00 | 31 | 1010.8 |
| 20260503211434 | 61 | 232 | 12.0 | 11.0 | 0.00 | 0.00 | 0.00 | 31 | 1010.8 |
| 20260503210934 | 61 | 248 | 7.0 | 9.0 | 0.00 | 0.00 | 0.00 | 32 | 1011.0 |
| 20260503210434 | 61 | 228 | 6.0 | 15.0 | 0.00 | 0.00 | 0.00 | 32 | 1011.0 |
| 20260503205931 | 61 | 308 | 7.0 | 12.0 | 0.00 | 0.00 | 0.00 | 29 | 1011.0 |
| 20260503205434 | 61 | 323 | 4.0 | 14.0 | 0.00 | 0.00 | 0.00 | 33 | 1011.0 |
| 20260503204931 | 61 | 306 | 16.0 | 15.0 | 0.00 | 0.00 | 0.00 | 31 | 1011.2 |
| 20260503204431 | 61 | 252 | 3.0 | 8.0 | 0.00 | 0.00 | 0.00 | 32 | 1011.2 |
| 20260503203938 | 61 | 219 | 3.0 | 14.0 | 0.00 | 0.00 | 0.00 | 32 | 1011.1 |
| 20260503203431 | 60 | 319 | 6.0 | 18.0 | 0.00 | 0.00 | 0.00 | 31 | 1011.2 |
| 20260503202934 | 60 | 257 | 4.0 | 12.0 | 0.00 | 0.00 | 0.00 | 32 | 1011.1 |
| 20260503202431 | 60 | 301 | 10.0 | 18.0 | 0.00 | 0.00 | 0.00 | 30 | 1011.1 |
| 20260503201931 | 61 | 311 | 9.0 | 15.0 | 0.00 | 0.00 | 0.00 | 32 | 1011.1 |
| 20260503201431 | 60 | 303 | 4.0 | 14.0 | 0.00 | 0.00 | 0.00 | 30 | 1011.1 |
| 20260503200931 | 60 | 262 | 4.0 | 17.0 | 0.00 | 0.00 | 0.00 | 31 | 1011.0 |
| 20260503200434 | 60 | 186 | 6.0 | 10.0 | 0.00 | 0.00 | 0.00 | 32 | 1011.2 |
| 20260503195934 | 59 | 47 | 3.0 | 14.0 | 0.00 | 0.00 | 0.00 | 32 | 1011.4 |
| 20260503195437 | 59 | 254 | 6.0 | 16.0 | 0.00 | 0.00 | 0.00 | 33 | 1011.4 |
| 20260503194937 | 59 | 219 | 1.0 | 15.0 | 0.00 | 0.00 | 0.00 | 32 | 1011.4 |
| 20260503194437 | 60 | 232 | 7.0 | 19.0 | 0.00 | 0.00 | 0.00 | 31 | 1011.4 |
| 20260503193934 | 61 | 192 | 3.0 | 16.0 | 0.00 | 0.00 | 0.00 | 32 | 1011.3 |
| 20260503193431 | 61 | 80 | 3.0 | 16.0 | 0.00 | 0.00 | 0.00 | 35 | 1011.4 |
| 20260503192935 | 59 | 323 | 21.0 | 17.0 | 0.00 | 0.00 | 0.00 | 33 | 1011.5 |
| 20260503192432 | 60 | 338 | 9.0 | 8.0 | 0.00 | 0.00 | 0.00 | 31 | 1011.4 |
| 20260503191931 | 61 | 78 | 3.0 | 12.0 | 0.00 | 0.00 | 0.00 | 32 | 1011.5 |
| 20260503191434 | 60 | 342 | 12.0 | 12.0 | 0.00 | 0.00 | 0.00 | 33 | 1011.6 |
| 20260503190934 | 60 | 298 | 7.0 | 14.0 | 0.00 | 0.00 | 0.00 | 32 | 1011.7 |
| 20260503190434 | 60 | 306 | 21.0 | 16.0 | 0.00 | 0.00 | 0.00 | 33 | 1011.7 |
| 20260503185937 | 60 | 246 | 4.0 | 17.0 | 0.00 | 0.00 | 0.00 | 32 | 1011.9 |